Retour au catalogue

SL-8 DEB

ActifLEO
NORAD 22841·DEBRIS·🇷🇺 Russia

Lancé Feb 12, 1991 depuis Plesetsk Cosmodrome

Loading…

Prochains Passages (prochaines 24 heures)

TLE

FraisSource: Space-Track

Époque: Sep 14, 2026, 05:27 UTC

1 22841U 91009CL  26257.22708663 -.00000002  00000-0  11389-3 0  9990
2 22841  74.0473 347.9903 0129510  45.2574 342.7895 12.22980486585619

Suivez SL-8 DEB en temps réel avec AllMySat

Download on the App Store